EW9530 Weather Reports


time (UTC)temp
C
wind
direction
speed
KPH
gust
KPH
rain 1hr
cm
rain 24hr
cm
rain mn
cm
humidity
%
barometer
mb
20260507201650 15 136 0.0 0.0 0.00 0.00 0.00 81 1015.5
20260507194652 15 136 0.0 0.0 0.00 0.00 0.00 78 1015.1
20260507193139 15 136 0.0 0.0 0.00 0.00 0.00 77 1014.8
20260507191652 16 136 0.0 4.8 0.00 0.00 0.00 76 1014.5
20260507184650 16 119 1.6 6.4 0.00 0.00 0.00 73 1014.2
20260507183139 16 153 3.2 11.3 0.00 0.00 0.00 72 1014.0
20260507181652 16 115 1.6 14.5 0.00 0.00 0.00 72 1013.7
20260507180149 17 128 4.8 17.7 0.00 0.00 0.00 70 1013.6
20260507174650 17 130 3.2 16.1 0.00 0.00 0.00 68 1013.3
20260507173156 18 101 3.2 14.5 0.00 0.00 0.00 65 1013.3
20260507171652 18 107 8.0 20.9 0.00 0.00 0.00 64 1013.1
20260507170018 18 73 8.0 19.3 0.00 0.00 0.00 64 1013.0
20260507164652 18 185 3.2 17.7 0.00 0.00 0.00 65 1012.9
20260507163140 18 123 8.0 22.5 0.00 0.00 0.00 63 1012.8
20260507161652 19 122 6.4 17.7 0.00 0.00 0.00 62 1012.7
20260507160148 19 133 9.7 24.1 0.00 0.00 0.00 61 1012.7
20260507154652 19 134 8.0 32.2 0.00 0.00 0.00 63 1012.8
20260507153155 19 118 12.9 20.9 0.00 0.00 0.00 62 1012.7
20260507151652 18 198 6.4 22.5 0.00 0.00 0.00 65 1012.6
20260507150151 19 165 12.9 27.4 0.00 0.00 0.00 63 1012.7
20260507144651 18 173 4.8 16.1 0.00 0.00 0.00 65 1012.8
20260507143138 19 96 9.7 17.7 0.00 0.00 0.00 64 1012.9
20260507141653 18 169 4.8 14.5 0.00 0.00 0.00 64 1013.2
20260507134652 19 55 3.2 19.3 0.00 0.00 0.00 64 1013.3
20260507133138 19 130 8.0 19.3 0.00 0.00 0.00 63 1013.6
20260507131652 20 163 12.9 24.1 0.00 0.00 0.00 60 1013.4
20260507130149 20 130 11.3 22.5 0.00 0.00 0.00 62 1013.7
20260507124652 20 128 8.0 14.5 0.00 0.00 0.00 58 1013.8
20260507123157 20 243 1.6 19.3 0.00 0.00 0.00 57 1013.7
20260507121509 21 138 6.4 16.1 0.00 0.00 0.00 56 1013.9
20260507120150 20 109 3.2 14.5 0.00 0.00 0.00 57 1013.9
20260507114651 20 112 9.7 16.1 0.00 0.00 0.00 56 1014.0
20260507113140 20 80 1.6 19.3 0.00 0.00 0.00 59 1014.3
20260507111651 20 145 1.6 9.7 0.00 0.00 0.00 58 1014.5
20260507104653 19 140 8.0 16.1 0.00 0.00 0.00 61 1014.9
20260507103137 20 114 1.6 9.7 0.00 0.00 0.00 59 1015.1
20260507101652 18 132 0.0 14.5 0.00 0.00 0.00 63 1015.3
20260507094651 18 146 3.2 14.5 0.00 0.00 0.00 63 1015.4
20260507093156 18 167 4.8 12.9 0.00 0.00 0.00 67 1015.7
20260507091646 17 144 4.8 12.9 0.00 0.00 0.00 70 1015.6
20260507084656 16 213 3.2 11.3 0.00 0.00 0.00 73 1015.5
20260507083157 15 276 0.0 3.2 0.00 0.00 0.00 73 1015.8
20260507081651 15 45 0.0 0.0 0.00 0.00 0.00 72 1015.8
20260507080200 14 5 0.0 3.2 0.00 0.00 0.00 75 1016.0
20260507074650 13 37 0.0 3.2 0.00 0.00 0.00 78 1016.3
20260507073159 13 39 0.0 4.8 0.00 0.00 0.00 81 1016.4
20260507071652 12 28 1.6 4.8 0.00 0.00 0.00 84 1016.4
20260507064653 10 34 3.2 6.4 0.00 0.00 0.00 89 1016.3
20260507063138 10 70 3.2 8.0 0.00 0.00 0.00 91 1016.3
20260507061652 9 57 3.2 8.0 0.00 0.00 0.00 92 1016.0
20260507054654 8 55 0.0 0.0 0.00 0.00 0.00 93 1016.1
20260507053154 7 55 0.0 0.0 0.00 0.00 0.00 93 1016.0
20260507051653 7 54 0.0 0.0 0.00 0.00 0.00 93 1015.8
20260507050043 7 54 0.0 6.4 0.00 0.00 0.00 93 1015.7
20260507044652 7 32 0.0 0.0 0.00 0.00 0.00 93 1015.6
20260507043157 7 32 0.0 0.0 0.00 0.00 0.00 93 1015.6
20260507041651 7 32 0.0 0.0 0.00 0.00 0.00 92 1015.6
20260507040148 7 32 0.0 0.0 0.00 0.00 0.00 92 1015.7
20260507034652 7 32 0.0 0.0 0.00 0.00 0.00 92 1015.5
20260507033156 7 32 0.0 0.0 0.00 0.00 0.00 92 1015.6
20260507031652 8 32 0.0 0.0 0.00 0.00 0.00 92 1015.6
20260507030149 8 32 0.0 0.0 0.00 0.00 0.00 92 1015.5
20260507024654 8 32 0.0 0.0 0.00 0.00 0.00 92 1015.5
20260507023159 8 32 0.0 3.2 0.00 0.00 0.00 91 1015.4
20260507021655 8 32 0.0 4.8 0.00 0.00 0.00 91 1015.3
20260507020152 8 32 0.0 0.0 0.00 0.00 0.00 91 1015.4
20260507014654 8 32 0.0 0.0 0.00 0.00 0.00 90 1015.6
20260507013156 9 32 0.0 0.0 0.00 0.00 0.00 90 1015.6
20260507011516 9 32 0.0 0.0 0.00 0.00 0.00 90 1015.5
20260507010148 9 32 0.0 0.0 0.00 0.00 0.00 89 1015.5
20260507004652 10 40 0.0 4.8 0.00 0.00 0.00 89 1015.6
20260507003137 10 31 0.0 4.8 0.00 0.00 0.00 88 1015.6
20260507001651 10 36 1.6 6.4 0.00 0.00 0.00 88 1015.7
20260506234651 11 43 1.6 8.0 0.00 0.00 0.00 86 1015.7
20260506233156 11 24 1.6 6.4 0.00 0.00 0.00 86 1015.7
20260506231651 11 28 3.2 9.7 0.00 0.00 0.00 85 1015.6
20260506230148 11 49 0.0 6.4 0.00 0.00 0.00 84 1015.5
20260506224650 12 55 3.2 6.4 0.00 0.00 0.00 81 1015.5
20260506223157 13 153 0.0 0.0 0.00 0.00 0.00 79 1015.4
20260506221650 13 153 0.0 0.0 0.00 0.00 0.00 78 1015.3
20260506220003 13 153 0.0 0.0 0.00 0.00 0.00 78 1015.2
20260506214651 13 153 0.0 3.2 0.00 0.00 0.00 77 1015.2
20260506213138 14 137 0.0 8.0 0.00 0.00 0.00 76 1015.1
20260506211649 14 173 0.0 6.4 0.00 0.00 0.00 74 1015.0
20260506204650 14 198 3.2 8.0 0.00 0.00 0.00 72 1014.7
20260506203155 15 204 1.6 9.7 0.00 0.00 0.00 69 1014.5